Weather in Port of Spain

Trinidad and Tobago     10°39′19″N   61°29′00″W
temp.,
°C
wind,
m/s
gust,
m/s
humid.,
%
clouds,
%
prec.,
mm/h
press.,
hPa
HPBL,
m
1 march, mon
mon123:00+23ne610851 0.3 1013824
02:00+22ne59871 0.6 1011525
05:00+22ene598428 0.3 1011600
08:00+24ne697514 0.4 10131076
11:00+26ne79670 0.1 10141261
14:00+26ne79690 0.3 10111138
17:00+25ne69754 0.3 10101034
20:00+23ne610823 0.3 1011839
2 march, tue
tue223:00+23ne69790 0.0 1013837
02:00+22ne47870 0.3 1011444
05:00+22ene468933 0.8 1011441
08:00+24ne588018 0.8 1013801
11:00+26ne577010 0.0 10141033
14:00+26ne667013 0.4 1012860
17:00+25ne567433 0.1 1011701
20:00+23ene468659 0.1 1013459
3 march, wed
wed323:00+23ene578768 0.1 1014485
02:00+22ene469047 0.1 1013438
05:00+22ene458810 0.2 1013405
08:00+24ene47786 0.3 1015841
11:00+28ene576315 0.1 10151225
14:00+27ne676732 0.9 10131155
17:00+26ene577414 0.3 1012959
20:00+23ene45877 0.4 1013368
4 march, thu
thu423:00+23e35890 0.1 1015336
02:00+22e34910 0.2 1013295
05:00+23ene35911 0.0 1013327
08:00+24e358918 0.3 1015322
11:00+25e368382 1.6 1015440
14:00+25e368582 5.6 1013641
17:00+25e488883 4.8 1011699
20:00+23e489173 6.0 1013445
5 march, fri
fri523:00+23e489274 0.1 1014421
02:00+23e379286 1.6 1012411
05:00+23e4109198 4.4 1011499
08:00+25e398772 4.7 1013695
11:00+26e367987 0.2 1014591
14:00+26e378478 5.4 1011777
17:00+26e478288 1.1 1010746
20:00+24e369185 1.1 1012389